DW6276 Weather Reports


Display with metric or nautical units.
time (UTC)temp
F
wind
direction
speed
MPH
gust
MPH
rain 1hr
in
rain 24hr
in
rain mn
in
humidity
%
barometer
mb
20260507044016 33 0.0 0.0 0.00 0.00 0.00 71 1014.9
20260507043036 32 0.0 2.0 0.00 0.00 0.00 71 1014.8
20260507042016 32 0.0 0.0 0.00 0.00 0.00 70 1014.9
20260507041016 32 23 1.0 1.0 0.00 0.00 0.00 70 1014.9
20260507040016 32 0.0 0.0 0.00 0.00 0.00 72 1015.0
20260507035016 33 0.0 0.0 0.00 0.00 0.00 71 1015.1
20260507034036 33 0.0 0.0 0.00 0.00 0.00 70 1015.1
20260507033016 34 0.0 0.0 0.00 0.00 0.00 68 1015.1
20260507032016 34 0.0 0.0 0.00 0.00 0.00 68 1015.1
20260507031016 35 0.0 0.0 0.00 0.00 0.00 66 1015.3
20260507030016 36 0.0 0.0 0.00 0.00 0.00 63 1015.3
20260507025016 37 0.0 2.0 0.00 0.00 0.00 62 1015.3
20260507024016 38 0.0 2.0 0.00 0.00 0.00 60 1015.4
20260507023036 39 23 1.0 1.0 0.00 0.00 0.00 60 1015.3
20260507022016 40 23 1.0 2.0 0.00 0.00 0.00 59 1015.4
20260507021016 41 0.0 0.0 0.00 0.00 0.00 57 1015.3
20260507020016 42 0.0 1.0 0.00 0.00 0.00 56 1015.3
20260507015016 42 0.0 1.0 0.00 0.00 0.00 54 1015.1
20260507014016 43 0.0 1.0 0.00 0.00 0.00 51 1015.2
20260507013016 43 0.0 2.0 0.00 0.00 0.00 50 1015.2
20260507012016 44 0.0 1.0 0.00 0.00 0.00 50 1015.3
20260507011016 43 0 1.0 2.0 0.00 0.00 0.00 49 1015.2
20260507010016 44 338 2.0 3.0 0.00 0.00 0.00 48 1015.3
20260507005056 45 0 4.0 7.0 0.00 0.00 0.00 47 1015.3
20260507004016 45 338 5.0 7.0 0.00 0.00 0.00 45 1015.3
20260507003016 46 338 6.0 9.0 0.00 0.00 0.00 44 1015.3
20260507002016 46 338 7.0 10.0 0.00 0.00 0.00 43 1015.3
20260507001016 47 0 9.0 12.0 0.00 0.00 0.00 43 1015.4
20260507000016 47 338 8.0 12.0 0.00 0.00 0.00 43 1015.5
20260506235016 47 338 6.0 12.0 0.00 0.00 0.00 43 1015.5
20260506234016 47 0 8.0 12.0 0.00 0.00 0.00 43 1015.6
20260506233016 47 338 9.0 13.0 0.00 0.00 0.00 43 1015.7
20260506232016 47 315 8.0 13.0 0.00 0.00 0.00 43 1015.7
20260506231016 47 315 9.0 16.0 0.00 0.00 0.00 43 1015.9
20260506230036 47 293 6.0 8.0 0.00 0.00 0.00 43 1015.8
20260506225036 47 0 10.0 16.0 0.00 0.00 0.00 43 1015.8
20260506224016 47 315 8.0 11.0 0.00 0.00 0.00 43 1015.8
20260506223016 48 293 12.0 18.0 0.00 0.00 0.00 42 1015.8
20260506222016 47 315 8.0 12.0 0.00 0.00 0.00 43 1015.8
20260506221016 47 338 8.0 13.0 0.00 0.00 0.00 42 1015.8
20260506220015 47 315 10.0 14.0 0.00 0.00 0.00 43 1015.8
20260506215016 47 0 9.0 18.0 0.00 0.00 0.00 43 1015.8
20260506214015 47 315 12.0 18.0 0.00 0.00 0.00 42 1015.8
20260506213016 47 315 8.0 14.0 0.00 0.00 0.00 43 1016.0
20260506212016 47 315 11.0 18.0 0.00 0.00 0.00 42 1016.0
20260506211016 49 0 11.0 15.0 0.00 0.00 0.00 41 1016.0
20260506210015 47 0 9.0 14.0 0.00 0.00 0.00 42 1016.1
20260506205016 47 315 10.0 17.0 0.00 0.00 0.00 42 1016.2
20260506204035 47 0 8.0 15.0 0.00 0.00 0.00 42 1016.3
20260506203016 47 315 10.0 15.0 0.00 0.00 0.00 44 1016.3
20260506202015 46 338 10.0 15.0 0.00 0.00 0.00 44 1016.5
20260506201015 46 0 10.0 17.0 0.00 0.00 0.00 45 1016.6
20260506200036 48 293 7.0 14.0 0.00 0.00 0.00 45 1016.7
20260506195015 48 315 10.0 17.0 0.00 0.00 0.00 44 1016.9
20260506194015 45 338 11.0 16.0 0.00 0.00 0.00 45 1016.8
20260506193015 45 338 11.0 19.0 0.00 0.00 0.00 45 1016.8
20260506192016 45 315 11.0 17.0 0.00 0.00 0.00 45 1016.8
20260506191015 44 315 12.0 17.0 0.00 0.00 0.00 46 1016.9
20260506190015 44 293 11.0 15.0 0.00 0.00 0.00 46 1016.9
20260506185016 44 315 10.0 15.0 0.00 0.00 0.00 48 1016.9
20260506184055 44 315 8.0 13.0 0.00 0.00 0.00 48 1017.0
20260506183015 43 315 7.0 11.0 0.00 0.00 0.00 51 1017.1
20260506182015 43 338 7.0 10.0 0.00 0.00 0.00 51 1017.1
20260506181015 43 338 9.0 12.0 0.00 0.00 0.00 52 1017.1
20260506180015 42 293 9.0 12.0 0.00 0.00 0.00 52 1017.2
20260506175015 42 315 10.0 14.0 0.00 0.00 0.00 52 1017.3
20260506174015 42 315 8.0 13.0 0.00 0.00 0.00 51 1017.3
20260506173015 42 338 7.0 11.0 0.00 0.00 0.00 51 1017.4
20260506172015 42 315 8.0 12.0 0.00 0.00 0.00 52 1017.5
20260506171017 42 338 9.0 13.0 0.00 0.00 0.00 51 1017.6
20260506170017 42 315 9.0 15.0 0.00 0.00 0.00 51 1017.5
20260506165037 42 293 8.0 12.0 0.00 0.00 0.00 53 1017.7
20260506164017 41 315 8.0 12.0 0.00 0.00 0.00 53 1017.8
20260506163017 41 315 7.0 11.0 0.00 0.00 0.00 54 1017.8
20260506162037 41 315 7.0 9.0 0.00 0.00 0.00 54 1017.7
20260506161037 41 315 6.0 9.0 0.00 0.00 0.00 55 1017.7
20260506160017 40 315 7.0 11.0 0.00 0.00 0.00 55 1017.7
20260506155037 40 315 7.0 12.0 0.00 0.00 0.00 55 1017.7
20260506154017 40 293 6.0 8.0 0.00 0.00 0.00 56 1017.7
20260506153017 40 315 6.0 8.0 0.00 0.00 0.00 55 1017.5
20260506152017 39 338 5.0 8.0 0.00 0.00 0.00 56 1017.6
20260506151017 39 338 4.0 6.0 0.00 0.00 0.00 57 1017.6
20260506150017 39 293 4.0 5.0 0.00 0.00 0.00 58 1017.6
20260506145017 39 338 4.0 7.0 0.00 0.00 0.00 58 1017.6
20260506144017 38 338 4.0 7.0 0.00 0.00 0.00 58 1017.6
20260506143017 38 315 4.0 6.0 0.00 0.00 0.00 59 1017.5
20260506142017 38 0 4.0 6.0 0.00 0.00 0.00 61 1017.7
20260506141017 38 338 4.0 7.0 0.00 0.00 0.00 61 1017.7
20260506140017 38 338 3.0 6.0 0.00 0.00 0.00 62 1017.6
20260506135017 37 338 3.0 6.0 0.00 0.00 0.00 65 1017.6
20260506134017 37 338 3.0 5.0 0.00 0.00 0.00 66 1017.5
20260506133017 37 315 3.0 4.0 0.00 0.00 0.00 70 1017.5
20260506132037 36 293 2.0 3.0 0.00 0.00 0.00 72 1017.5
20260506131017 36 270 2.0 3.0 0.00 0.00 0.00 72 1017.4
20260506130017 35 293 2.0 2.0 0.00 0.00 0.00 73 1017.3
20260506125057 35 293 2.0 3.0 0.00 0.00 0.00 73 1017.1
20260506124017 34 293 1.0 3.0 0.00 0.00 0.00 75 1017.1
20260506123016 34 270 1.0 2.0 0.00 0.00 0.00 76 1017.0
20260506122017 34 270 1.0 1.0 0.00 0.00 0.00 76 1016.7
20260506121016 33 0.0 2.0 0.00 0.00 0.00 76 1016.4
20260506120056 33 0.0 2.0 0.00 0.00 0.00 77 1016.3
20260506115016 33 225 2.0 3.0 0.00 0.00 0.00 77 1016.3
20260506114036 32 0.0 2.0 0.00 0.00 0.00 77 1016.0
20260506113017 32 270 1.0 2.0 0.00 0.00 0.00 78 1015.9
20260506112016 32 225 1.0 1.0 0.00 0.00 0.00 78 1015.7
20260506111016 32 0.0 2.0 0.00 0.00 0.00 77 1015.5
20260506110016 32 225 2.0 2.0 0.00 0.00 0.00 77 1015.6
20260506105017 32 0.0 2.0 0.00 0.00 0.00 78 1015.6
20260506104016 32 0.0 1.0 0.00 0.00 0.00 79 1015.6
20260506103016 31 0.0 0.0 0.00 0.00 0.00 79 1015.7
20260506102017 31 270 1.0 1.0 0.00 0.00 0.00 81 1015.8
20260506101016 31 270 1.0 2.0 0.00 0.00 0.00 82 1015.7
20260506100016 30 248 1.0 2.0 0.00 0.00 0.00 82 1015.6
20260506095016 29 248 1.0 1.0 0.00 0.00 0.00 83 1015.4
20260506094016 28 0.0 0.0 0.00 0.00 0.00 82 1015.1
20260506093016 27 0.0 0.0 0.00 0.00 0.00 82 1015.1
20260506092016 27 0.0 0.0 0.00 0.00 0.00 82 1015.2
20260506091037 26 0.0 0.0 0.00 0.00 0.00 80 1015.0
20260506090016 26 248 1.0 2.0 0.00 0.00 0.00 78 1015.0
20260506085016 27 248 1.0 2.0 0.00 0.00 0.00 78 1015.1
20260506084016 28 0.0 0.0 0.00 0.00 0.00 79 1015.1
20260506083016 28 0.0 2.0 0.00 0.00 0.00 76 1014.8
20260506082016 28 0.0 0.0 0.00 0.00 0.00 75 1014.7
20260506081016 29 0.0 0.0 0.00 0.00 0.00 72 1014.7
20260506073016 32 338 1.0 2.0 0.00 0.00 0.00 69 1015.0
20260506072036 33 338 2.0 3.0 0.00 0.00 0.00 68 1014.7
20260506071036 33 338 1.0 2.0 0.00 0.00 0.00 68 1014.5
20260506062016 32 315 1.0 2.0 0.00 0.00 0.00 70 1014.6
20260506061036 32 315 2.0 2.0 0.00 0.00 0.00 70 1014.6
20260506051016 36 338 2.0 3.0 0.00 0.00 0.00 62 1014.5
20260506045016 36 338 1.0 2.0 0.00 0.00 0.00 61 1014.2